Location: Unnamed
(45.3580°N, 90.2245°W)
Time: 02:20:52
(UTC-06:00)

Envisat - Visible Passes

Search period start: 06 March 2021 00:00
Search period end: 16 March 2021 01:00
Orbit: 764 x 766 km, 98.1° (Epoch: 05 March)

Date Brightness Start Highest point End Pass type
(mag) Time Alt. Az. Time Alt. Az. Time Alt. Az.
06 Mar 3.7 05:29:44 10° NNE 05:34:47 59° E 05:39:47 10° S visible
06 Mar 6.8 18:29:42 10° WSW 18:31:06 11° W 18:32:32 10° WNW visible
07 Mar 5.2 04:53:25 10° NE 04:57:46 28° E 05:02:05 10° SSE visible
08 Mar 6.1 04:18:12 10° ENE 04:20:32 13° E 04:22:51 10° ESE visible
08 Mar 3.0 05:55:05 10° NNE 06:00:12 82° WNW 06:05:16 10° SSW visible
09 Mar 4.2 05:18:24 10° NNE 05:23:19 47° E 05:28:12 10° S visible
10 Mar 5.6 04:42:17 10° NE 04:46:14 22° E 04:50:10 10° SE visible
11 Mar 3.2 05:43:39 10° NNE 05:48:46 80° ESE 05:53:51 10° S visible
12 Mar 4.6 05:07:06 10° NNE 05:11:50 37° E 05:16:31 10° SSE visible
13 Mar 5.9 04:31:15 10° NE 04:34:41 18° E 04:38:06 10° SE visible
14 Mar 3.6 06:32:15 10° NNE 06:37:19 64° E 06:42:21 10° S visible
15 Mar 5.1 05:55:52 10° NNE 06:00:19 30° E 06:04:45 10° SSE visible
